Time,TemperatureF,DewpointF,PressureIn,WindDirection,WindDirectionDegrees,WindSpeedMPH,WindSpeedGustMPH,Humidity,HourlyPrecipIn,Conditions,Clouds,dailyrainin,SoftwareType,DateUTC
2013-01-17 00:01:00,46.4,45.9,29.84,WNW,300,0.0,0.0,98,0.01,,,0.14,meteohub,2013-01-17 05:01:00,
2013-01-17 00:02:00,46.6,46.0,29.84,WNW,300,0.0,0.0,98,0.01,,,0.14,meteohub,2013-01-17 05:02:00,
2013-01-17 00:07:00,46.6,46.0,29.84,WNW,300,0.0,0.0,98,0.01,,,0.14,meteohub,2013-01-17 05:07:00,
2013-01-17 00:12:00,46.8,46.2,29.85,WNW,300,0.0,0.0,98,0.01,,,0.14,meteohub,2013-01-17 05:12:00,
2013-01-17 00:17:00,46.6,46.0,29.85,WNW,300,0.0,0.0,98,0.00,,,0.14,meteohub,2013-01-17 05:17:00,
2013-01-17 00:22:00,46.6,46.0,29.84,WNW,300,0.0,0.0,98,0.00,,,0.14,meteohub,2013-01-17 05:22:00,
2013-01-17 00:27:00,46.6,46.0,29.84,WNW,300,0.0,0.0,98,0.00,,,0.14,meteohub,2013-01-17 05:27:00,
2013-01-17 00:32:00,46.8,46.2,29.84,WNW,300,0.0,0.0,98,0.00,,,0.14,meteohub,2013-01-17 05:32:00,
2013-01-17 00:37:00,46.8,46.2,29.84,WNW,300,0.0,0.0,98,0.00,,,0.14,meteohub,2013-01-17 05:37:00,
2013-01-17 00:42:00,46.8,46.2,29.84,WNW,300,0.0,0.0,98,0.00,,,0.14,meteohub,2013-01-17 05:42:00,
2013-01-17 00:47:00,46.8,46.2,29.84,WNW,300,0.0,0.0,98,0.00,,,0.14,meteohub,2013-01-17 05:47:00,
2013-01-17 00:52:00,46.8,46.2,29.85,WNW,300,0.0,0.0,98,0.00,,,0.14,meteohub,2013-01-17 05:52:00,
2013-01-17 00:57:00,46.8,46.2,29.85,WNW,300,0.0,0.0,98,0.00,,,0.14,meteohub,2013-01-17 05:57:00,
2013-01-17 01:02:00,46.8,46.2,29.85,WNW,300,0.0,0.0,98,0.00,,,0.14,meteohub,2013-01-17 06:02:00,
2013-01-17 01:07:00,46.8,46.2,29.85,WNW,300,0.0,0.0,98,0.00,,,0.14,meteohub,2013-01-17 06:07:00,
2013-01-17 01:12:00,46.9,46.4,29.85,WNW,300,0.0,0.0,98,0.00,,,0.14,meteohub,2013-01-17 06:12:00,
2013-01-17 01:17:00,47.1,46.6,29.85,WNW,300,0.0,0.0,98,0.00,,,0.14,meteohub,2013-01-17 06:17:00,
2013-01-17 01:22:00,47.1,46.6,29.85,WNW,300,0.0,0.0,98,0.00,,,0.14,meteohub,2013-01-17 06:22:00,
2013-01-17 01:27:00,47.3,46.8,29.85,WNW,300,0.0,0.0,98,0.00,,,0.14,meteohub,2013-01-17 06:27:00,
2013-01-17 01:32:00,47.5,46.9,29.85,WNW,300,0.0,0.0,98,0.01,,,0.15,meteohub,2013-01-17 06:32:00,
2013-01-17 01:37:00,47.7,47.1,29.85,WNW,300,0.0,0.0,98,0.01,,,0.15,meteohub,2013-01-17 06:37:00,
2013-01-17 01:42:00,47.8,47.3,29.85,WNW,300,0.0,0.0,98,0.01,,,0.15,meteohub,2013-01-17 06:42:00,
2013-01-17 01:47:00,48.0,47.5,29.86,WNW,300,0.0,0.0,98,0.02,,,0.16,meteohub,2013-01-17 06:47:00,
2013-01-17 01:52:00,48.2,47.7,29.85,WNW,300,0.0,0.0,98,0.02,,,0.16,meteohub,2013-01-17 06:52:00,
2013-01-17 01:57:00,48.4,47.8,29.85,WNW,300,0.0,0.0,98,0.02,,,0.16,meteohub,2013-01-17 06:57:00,
2013-01-17 02:02:00,48.4,47.8,29.84,WNW,300,0.0,0.0,98,0.03,,,0.17,meteohub,2013-01-17 07:02:00,
2013-01-17 02:07:00,48.6,48.0,29.84,WNW,300,0.0,0.0,98,0.03,,,0.17,meteohub,2013-01-17 07:07:00,
2013-01-17 02:12:00,48.4,47.8,29.84,WNW,300,0.0,0.0,98,0.03,,,0.17,meteohub,2013-01-17 07:12:00,
2013-01-17 02:17:00,48.0,47.5,29.84,WNW,300,0.0,0.0,98,0.03,,,0.17,meteohub,2013-01-17 07:17:00,
2013-01-17 02:22:00,47.8,47.3,29.84,WNW,300,0.0,0.0,98,0.03,,,0.17,meteohub,2013-01-17 07:22:00,
2013-01-17 02:27:00,47.7,47.1,29.84,WNW,300,0.0,0.0,98,0.03,,,0.18,meteohub,2013-01-17 07:27:00,
2013-01-17 02:32:00,47.5,46.9,29.84,WNW,300,0.0,0.0,98,0.03,,,0.18,meteohub,2013-01-17 07:32:00,
2013-01-17 02:37:00,47.3,46.8,29.83,WNW,300,0.0,0.0,98,0.03,,,0.18,meteohub,2013-01-17 07:37:00,
2013-01-17 02:42:00,47.3,46.8,29.84,WNW,300,0.0,0.0,98,0.03,,,0.18,meteohub,2013-01-17 07:42:00,
2013-01-17 02:47:00,47.1,46.6,29.84,WNW,300,0.0,0.0,98,0.03,,,0.19,meteohub,2013-01-17 07:47:00,
2013-01-17 02:52:00,47.1,46.6,29.83,WNW,300,0.0,0.0,98,0.03,,,0.19,meteohub,2013-01-17 07:52:00,
2013-01-17 02:57:00,47.1,46.6,29.83,WNW,300,0.0,0.0,98,0.03,,,0.19,meteohub,2013-01-17 07:57:00,
2013-01-17 03:02:00,47.1,46.6,29.83,WNW,300,0.0,0.0,98,0.03,,,0.20,meteohub,2013-01-17 08:02:00,
2013-01-17 03:08:00,47.1,46.6,29.83,WNW,300,0.0,0.0,98,0.03,,,0.20,meteohub,2013-01-17 08:08:00,
2013-01-17 03:13:00,47.1,46.6,29.83,WNW,300,0.0,0.0,98,0.03,,,0.20,meteohub,2013-01-17 08:13:00,
2013-01-17 03:18:00,47.1,46.6,29.83,WNW,300,0.0,0.0,98,0.03,,,0.20,meteohub,2013-01-17 08:18:00,
2013-01-17 03:23:00,47.1,46.6,29.83,WNW,300,0.0,0.0,98,0.03,,,0.20,meteohub,2013-01-17 08:23:00,
2013-01-17 03:28:00,47.1,46.6,29.83,WNW,300,0.0,0.0,98,0.02,,,0.20,meteohub,2013-01-17 08:28:00,
2013-01-17 03:33:00,46.9,46.4,29.83,WNW,300,0.0,0.0,98,0.03,,,0.21,meteohub,2013-01-17 08:33:00,
2013-01-17 03:38:00,46.9,46.4,29.83,WNW,300,0.0,0.0,98,0.03,,,0.21,meteohub,2013-01-17 08:38:00,
2013-01-17 03:43:00,46.9,46.4,29.82,WNW,300,0.0,0.0,98,0.03,,,0.21,meteohub,2013-01-17 08:43:00,
2013-01-17 03:48:00,46.9,46.4,29.82,WNW,300,0.0,0.0,98,0.02,,,0.21,meteohub,2013-01-17 08:48:00,
2013-01-17 03:54:00,46.9,46.4,29.81,WNW,300,0.0,0.0,98,0.03,,,0.22,meteohub,2013-01-17 08:54:00,
2013-01-17 03:59:00,47.1,46.6,29.82,WNW,300,0.0,0.0,98,0.02,,,0.22,meteohub,2013-01-17 08:59:00,
2013-01-17 04:04:00,47.1,46.6,29.81,WNW,300,0.0,0.0,98,0.02,,,0.22,meteohub,2013-01-17 09:04:00,
2013-01-17 04:09:00,47.1,46.6,29.81,WNW,300,0.0,0.0,98,0.02,,,0.22,meteohub,2013-01-17 09:09:00,
2013-01-17 04:14:00,46.9,46.4,29.81,WNW,300,0.0,0.0,98,0.03,,,0.23,meteohub,2013-01-17 09:14:00,
2013-01-17 04:19:00,46.9,46.4,29.82,WNW,300,0.0,0.0,98,0.04,,,0.24,meteohub,2013-01-17 09:19:00,
2013-01-17 04:24:00,47.1,46.6,29.81,WNW,300,0.0,0.0,98,0.05,,,0.25,meteohub,2013-01-17 09:24:00,
2013-01-17 04:29:00,47.1,46.6,29.81,WNW,300,0.0,0.0,98,0.05,,,0.25,meteohub,2013-01-17 09:29:00,
2013-01-17 04:34:00,46.9,46.4,29.81,WNW,300,0.0,0.0,98,0.04,,,0.25,meteohub,2013-01-17 09:34:00,
2013-01-17 04:39:00,46.9,46.4,29.82,WNW,300,0.0,0.0,98,0.04,,,0.25,meteohub,2013-01-17 09:39:00,
2013-01-17 04:44:00,46.9,46.4,29.82,WNW,300,0.0,0.0,98,0.05,,,0.26,meteohub,2013-01-17 09:44:00,
2013-01-17 04:49:00,46.9,46.4,29.81,WNW,300,0.0,0.0,98,0.04,,,0.26,meteohub,2013-01-17 09:49:00,
2013-01-17 04:54:00,46.9,46.4,29.82,WNW,300,0.0,0.0,98,0.04,,,0.26,meteohub,2013-01-17 09:54:00,
2013-01-17 04:59:00,46.9,46.4,29.81,WNW,300,0.0,0.0,98,0.05,,,0.27,meteohub,2013-01-17 09:59:00,
2013-01-17 05:04:00,46.9,46.4,29.82,WNW,300,0.0,0.0,98,0.05,,,0.27,meteohub,2013-01-17 10:04:00,
2013-01-17 05:09:00,46.9,46.4,29.81,WNW,300,0.0,0.0,98,0.04,,,0.27,meteohub,2013-01-17 10:09:00,
2013-01-17 05:14:00,46.9,46.4,29.81,WNW,300,0.0,0.0,98,0.05,,,0.28,meteohub,2013-01-17 10:14:00,
2013-01-17 05:19:00,47.3,46.8,29.80,WNW,300,0.0,0.0,98,0.05,,,0.29,meteohub,2013-01-17 10:19:00,
2013-01-17 05:24:00,47.5,46.9,29.80,WNW,300,0.0,0.0,98,0.05,,,0.30,meteohub,2013-01-17 10:24:00,
2013-01-17 05:29:00,47.5,46.9,29.81,WNW,300,0.0,0.0,98,0.05,,,0.30,meteohub,2013-01-17 10:29:00,
2013-01-17 05:34:00,47.5,46.9,29.81,WNW,300,0.0,0.0,98,0.05,,,0.30,meteohub,2013-01-17 10:34:00,
2013-01-17 05:39:00,47.5,46.9,29.80,WNW,300,0.0,0.0,98,0.05,,,0.31,meteohub,2013-01-17 10:39:00,
2013-01-17 05:44:00,47.5,46.9,29.80,WNW,300,0.0,0.0,98,0.05,,,0.31,meteohub,2013-01-17 10:44:00,
2013-01-17 05:49:00,47.5,46.9,29.80,WNW,300,0.0,0.0,98,0.06,,,0.32,meteohub,2013-01-17 10:49:00,
2013-01-17 05:54:00,47.5,46.9,29.80,WNW,300,0.0,0.0,98,0.05,,,0.32,meteohub,2013-01-17 10:54:00,
2013-01-17 05:59:00,47.5,46.9,29.80,WNW,300,0.0,0.0,98,0.05,,,0.32,meteohub,2013-01-17 10:59:00,
2013-01-17 06:04:00,47.3,46.8,29.79,WNW,300,0.0,0.0,98,0.05,,,0.32,meteohub,2013-01-17 11:04:00,
2013-01-17 06:09:00,47.3,46.8,29.78,WNW,300,0.0,0.0,98,0.05,,,0.33,meteohub,2013-01-17 11:09:00,
2013-01-17 06:14:00,47.3,46.8,29.79,WNW,300,0.0,0.0,98,0.04,,,0.33,meteohub,2013-01-17 11:14:00,
2013-01-17 06:19:00,47.3,46.8,29.79,WNW,300,0.0,0.0,98,0.04,,,0.33,meteohub,2013-01-17 11:19:00,
2013-01-17 06:25:00,47.1,46.6,29.79,WNW,300,0.0,0.0,98,0.03,,,0.33,meteohub,2013-01-17 11:25:00,
2013-01-17 06:30:00,47.1,46.6,29.78,WNW,300,0.0,0.0,98,0.04,,,0.34,meteohub,2013-01-17 11:30:00,
2013-01-17 06:35:00,47.5,46.9,29.79,SSW,200,0.0,0.0,98,0.04,,,0.34,meteohub,2013-01-17 11:35:00,
2013-01-17 06:40:00,47.5,46.9,29.78,SSW,200,0.0,0.0,98,0.03,,,0.34,meteohub,2013-01-17 11:40:00,
2013-01-17 06:45:00,47.7,47.1,29.78,SSW,200,0.0,0.0,98,0.03,,,0.34,meteohub,2013-01-17 11:45:00,
2013-01-17 06:50:00,47.7,47.1,29.79,SSW,200,0.0,0.0,98,0.02,,,0.34,meteohub,2013-01-17 11:50:00,
2013-01-17 06:55:00,47.7,47.1,29.79,SSW,200,0.0,0.0,98,0.03,,,0.35,meteohub,2013-01-17 11:55:00,
2013-01-17 07:00:00,47.8,47.3,29.79,SSW,200,0.0,0.0,98,0.03,,,0.35,meteohub,2013-01-17 12:00:00,
2013-01-17 07:05:00,48.0,47.5,29.79,SSW,200,0.0,0.0,98,0.02,,,0.35,meteohub,2013-01-17 12:05:00,
2013-01-17 07:10:00,48.0,47.5,29.79,SSW,200,0.0,0.0,98,0.02,,,0.35,meteohub,2013-01-17 12:10:00,
2013-01-17 07:15:00,48.2,47.7,29.79,SSW,200,0.0,0.0,98,0.03,,,0.36,meteohub,2013-01-17 12:15:00,
2013-01-17 07:20:00,48.2,47.7,29.80,SSW,200,0.0,0.0,98,0.03,,,0.36,meteohub,2013-01-17 12:20:00,
2013-01-17 07:25:00,48.0,47.5,29.79,SSW,200,0.0,0.0,98,0.02,,,0.36,meteohub,2013-01-17 12:25:00,
2013-01-17 07:30:00,48.0,47.5,29.80,SSW,200,0.0,0.0,98,0.03,,,0.37,meteohub,2013-01-17 12:30:00,
2013-01-17 07:35:00,48.0,47.5,29.80,SSW,200,0.0,0.0,98,0.03,,,0.37,meteohub,2013-01-17 12:35:00,
2013-01-17 07:40:00,48.2,47.7,29.80,SSW,200,0.0,0.0,98,0.04,,,0.38,meteohub,2013-01-17 12:40:00,
2013-01-17 07:45:00,48.2,47.7,29.79,SSW,200,0.0,0.0,98,0.04,,,0.38,meteohub,2013-01-17 12:45:00,
2013-01-17 07:50:00,48.2,47.7,29.79,SSW,200,0.0,0.0,98,0.03,,,0.38,meteohub,2013-01-17 12:50:00,
2013-01-17 07:55:00,48.2,47.7,29.79,SSW,200,0.0,0.0,98,0.04,,,0.39,meteohub,2013-01-17 12:55:00,
2013-01-17 08:00:00,48.0,47.5,29.79,SSW,200,0.0,0.0,98,0.04,,,0.39,meteohub,2013-01-17 13:00:00,
2013-01-17 08:05:00,48.2,47.7,29.79,SSW,200,0.0,0.0,98,0.04,,,0.39,meteohub,2013-01-17 13:05:00,
2013-01-17 08:10:00,48.2,47.7,29.78,SSW,200,0.0,0.0,98,0.03,,,0.39,meteohub,2013-01-17 13:10:00,
2013-01-17 08:15:00,48.4,47.8,29.79,SSW,200,0.0,0.0,98,0.03,,,0.39,meteohub,2013-01-17 13:15:00,
2013-01-17 08:20:00,48.4,47.8,29.79,SSW,200,0.0,0.0,98,0.03,,,0.39,meteohub,2013-01-17 13:20:00,
2013-01-17 08:25:00,48.4,47.8,29.80,SSW,200,0.0,0.0,98,0.03,,,0.39,meteohub,2013-01-17 13:25:00,
2013-01-17 08:30:00,48.4,47.8,29.79,SSW,199,0.0,1.0,98,0.02,,,0.39,meteohub,2013-01-17 13:30:00,
2013-01-17 08:35:00,48.4,47.8,29.79,SSW,199,0.0,1.0,98,0.02,,,0.39,meteohub,2013-01-17 13:35:00,
2013-01-17 08:40:00,48.4,47.8,29.79,SSW,200,0.0,1.0,98,0.01,,,0.39,meteohub,2013-01-17 13:40:00,
2013-01-17 08:46:00,48.2,47.7,29.78,SSW,199,0.0,0.0,98,0.02,,,0.40,meteohub,2013-01-17 13:46:00,
2013-01-17 08:51:00,48.2,47.7,29.79,SSW,199,0.0,1.0,98,0.02,,,0.40,meteohub,2013-01-17 13:51:00,
2013-01-17 08:56:00,48.2,47.7,29.79,South,186,0.0,3.0,98,0.01,,,0.40,meteohub,2013-01-17 13:56:00,
2013-01-17 09:01:00,48.2,47.7,29.79,South,186,0.0,3.0,98,0.01,,,0.40,meteohub,2013-01-17 14:01:00,
2013-01-17 09:06:00,48.4,47.8,29.78,South,186,0.0,3.0,98,0.02,,,0.41,meteohub,2013-01-17 14:06:00,
2013-01-17 09:11:00,48.4,47.8,29.78,South,185,0.0,1.0,98,0.02,,,0.41,meteohub,2013-01-17 14:11:00,
2013-01-17 09:16:00,48.4,47.8,29.77,SSE,158,0.0,3.0,98,0.02,,,0.41,meteohub,2013-01-17 14:16:00,
2013-01-17 09:21:00,48.2,47.7,29.78,South,173,0.0,4.0,98,0.02,,,0.41,meteohub,2013-01-17 14:21:00,
2013-01-17 09:26:00,48.2,47.7,29.78,South,177,0.0,5.0,98,0.02,,,0.41,meteohub,2013-01-17 14:26:00,
2013-01-17 09:31:00,48.4,47.8,29.78,South,175,0.0,5.0,98,0.02,,,0.41,meteohub,2013-01-17 14:31:00,
2013-01-17 09:37:00,48.4,47.8,29.78,SSE,150,0.0,7.0,98,0.02,,,0.41,meteohub,2013-01-17 14:37:00,
2013-01-17 09:42:00,48.4,47.8,29.77,South,173,1.0,7.0,98,0.01,,,0.41,meteohub,2013-01-17 14:42:00,
2013-01-17 09:47:00,48.4,47.8,29.78,South,173,0.0,7.0,98,0.01,,,0.41,meteohub,2013-01-17 14:47:00,
2013-01-17 09:52:00,48.4,47.8,29.78,South,173,0.0,7.0,98,0.01,,,0.41,meteohub,2013-01-17 14:52:00,
2013-01-17 09:57:00,48.4,47.8,29.77,South,175,0.0,4.0,98,0.02,,,0.42,meteohub,2013-01-17 14:57:00,
2013-01-17 10:02:00,48.6,48.0,29.76,South,174,0.0,7.0,98,0.03,,,0.43,meteohub,2013-01-17 15:02:00,
2013-01-17 10:07:00,48.6,48.0,29.76,South,174,0.0,7.0,98,0.02,,,0.43,meteohub,2013-01-17 15:07:00,
2013-01-17 10:12:00,48.7,48.2,29.75,South,171,1.0,7.0,98,0.03,,,0.44,meteohub,2013-01-17 15:12:00,
2013-01-17 10:17:00,48.6,48.0,29.76,SSE,165,0.0,3.0,98,0.03,,,0.44,meteohub,2013-01-17 15:17:00,
2013-01-17 10:22:00,48.6,48.0,29.76,South,175,3.0,3.0,98,0.03,,,0.44,meteohub,2013-01-17 15:22:00,
2013-01-17 10:27:00,48.6,48.0,29.75,South,175,4.0,5.0,98,0.04,,,0.45,meteohub,2013-01-17 15:27:00,
2013-01-17 10:32:00,48.6,48.0,29.75,South,175,0.0,7.0,98,0.04,,,0.45,meteohub,2013-01-17 15:32:00,
2013-01-17 10:37:00,48.6,48.0,29.74,SSE,152,0.0,7.0,98,0.04,,,0.45,meteohub,2013-01-17 15:37:00,
2013-01-17 10:42:00,48.4,47.8,29.74,South,181,0.0,7.0,98,0.04,,,0.45,meteohub,2013-01-17 15:42:00,
2013-01-17 10:47:00,48.2,47.7,29.73,South,177,0.0,10.0,98,0.04,,,0.45,meteohub,2013-01-17 15:47:00,
2013-01-17 10:52:00,48.0,47.5,29.73,South,179,1.0,10.0,98,0.03,,,0.45,meteohub,2013-01-17 15:52:00,
2013-01-17 10:58:00,48.0,47.5,29.73,SSE,159,3.0,10.0,98,0.03,,,0.46,meteohub,2013-01-17 15:58:00,
2013-01-17 11:03:00,48.0,47.5,29.72,South,179,1.0,10.0,98,0.03,,,0.46,meteohub,2013-01-17 16:03:00,
2013-01-17 11:08:00,48.0,47.5,29.72,South,173,0.0,10.0,98,0.02,,,0.46,meteohub,2013-01-17 16:08:00,
2013-01-17 11:13:00,47.8,47.3,29.71,South,169,0.0,15.0,98,0.02,,,0.46,meteohub,2013-01-17 16:13:00,
2013-01-17 11:18:00,47.8,47.3,29.71,South,171,0.0,15.0,98,0.02,,,0.46,meteohub,2013-01-17 16:18:00,
2013-01-17 11:23:00,47.8,47.3,29.70,South,173,0.0,14.0,98,0.01,,,0.46,meteohub,2013-01-17 16:23:00,
2013-01-17 11:28:00,47.7,47.1,29.70,South,173,0.0,3.0,98,0.01,,,0.46,meteohub,2013-01-17 16:28:00,
2013-01-17 11:33:00,47.7,47.1,29.69,West,266,0.0,3.0,98,0.02,,,0.47,meteohub,2013-01-17 16:33:00,
2013-01-17 11:38:00,47.3,46.8,29.69,South,181,0.0,7.0,98,0.02,,,0.47,meteohub,2013-01-17 16:38:00,
2013-01-17 11:43:00,46.9,46.4,29.70,South,181,1.0,7.0,98,0.03,,,0.48,meteohub,2013-01-17 16:43:00,
2013-01-17 11:48:00,46.8,46.2,29.68,South,176,0.0,5.0,98,0.03,,,0.48,meteohub,2013-01-17 16:48:00,
2013-01-17 11:53:00,46.9,46.4,29.68,South,176,0.0,5.0,98,0.03,,,0.48,meteohub,2013-01-17 16:53:00,
2013-01-17 11:58:00,46.9,46.4,29.68,ENE,59,0.0,3.0,98,0.03,,,0.49,meteohub,2013-01-17 16:58:00,
2013-01-17 12:03:00,46.8,46.2,29.68,ENE,59,0.0,2.0,98,0.04,,,0.50,meteohub,2013-01-17 17:03:00,
2013-01-17 12:08:00,46.8,46.2,29.68,ESE,106,0.0,0.0,98,0.04,,,0.50,meteohub,2013-01-17 17:08:00,
2013-01-17 12:13:00,46.6,46.0,29.67,NNW,341,0.0,0.0,98,0.05,,,0.51,meteohub,2013-01-17 17:13:00,
2013-01-17 12:18:00,46.2,45.7,29.68,NNW,341,0.0,1.0,98,0.07,,,0.53,meteohub,2013-01-17 17:18:00,
2013-01-17 12:23:00,46.2,45.7,29.68,NNW,341,0.0,1.0,98,0.10,,,0.56,meteohub,2013-01-17 17:23:00,
2013-01-17 12:28:00,46.0,45.5,29.68,NNW,341,0.0,0.0,98,0.16,,,0.63,meteohub,2013-01-17 17:28:00,
2013-01-17 12:33:00,45.9,45.3,29.67,NNW,341,0.0,0.0,98,0.19,,,0.66,meteohub,2013-01-17 17:33:00,
2013-01-17 12:39:00,45.7,45.1,29.67,NNW,341,0.0,0.0,98,0.21,,,0.69,meteohub,2013-01-17 17:39:00,
2013-01-17 12:44:00,45.5,45.0,29.67,NNW,341,0.0,0.0,98,0.24,,,0.72,meteohub,2013-01-17 17:44:00,
2013-01-17 12:49:00,45.3,44.8,29.66,NNW,341,0.0,0.0,98,0.25,,,0.73,meteohub,2013-01-17 17:49:00,
2013-01-17 12:54:00,45.3,44.8,29.65,NNW,341,0.0,0.0,98,0.27,,,0.76,meteohub,2013-01-17 17:54:00,
2013-01-17 12:59:00,45.3,44.8,29.65,NNW,341,0.0,0.0,98,0.28,,,0.77,meteohub,2013-01-17 17:59:00,
2013-01-17 13:04:00,45.3,44.8,29.64,NNW,341,0.0,0.0,98,0.30,,,0.80,meteohub,2013-01-17 18:04:00,
2013-01-17 13:09:00,45.1,44.6,29.64,NNW,341,0.0,0.0,98,0.29,,,0.80,meteohub,2013-01-17 18:09:00,
2013-01-17 13:14:00,45.0,44.4,29.64,NNW,342,0.0,0.0,98,0.31,,,0.83,meteohub,2013-01-17 18:14:00,
2013-01-17 13:19:00,44.8,44.2,29.63,NNW,342,0.0,0.0,98,0.30,,,0.84,meteohub,2013-01-17 18:19:00,
2013-01-17 13:24:00,44.8,44.2,29.63,NNE,14,0.0,0.0,98,0.29,,,0.87,meteohub,2013-01-17 18:24:00,
2013-01-17 13:29:00,44.6,44.1,29.63,SE,146,0.0,0.0,98,0.24,,,0.88,meteohub,2013-01-17 18:29:00,
2013-01-17 13:34:00,44.6,44.1,29.61,NW,304,0.0,0.0,98,0.21,,,0.89,meteohub,2013-01-17 18:34:00,
2013-01-17 13:39:00,44.4,43.9,29.64,ESE,115,0.0,1.0,98,0.22,,,0.91,meteohub,2013-01-17 18:39:00,
2013-01-17 13:44:00,44.4,43.9,29.63,ESE,111,0.0,1.0,98,0.19,,,0.91,meteohub,2013-01-17 18:44:00,
2013-01-17 13:50:00,44.6,44.1,29.63,ESE,111,0.0,2.0,98,0.22,,,0.96,meteohub,2013-01-17 18:50:00,
2013-01-17 13:55:00,44.6,44.1,29.64,ESE,111,0.0,2.0,98,0.21,,,0.97,meteohub,2013-01-17 18:55:00,
2013-01-17 14:00:00,44.4,43.9,29.64,ESE,111,0.0,0.0,98,0.20,,,0.98,meteohub,2013-01-17 19:00:00,
2013-01-17 14:05:00,44.4,43.9,29.65,ESE,111,0.0,0.0,98,0.19,,,1.01,meteohub,2013-01-17 19:05:00,
2013-01-17 14:10:00,44.6,44.1,29.65,ESE,111,0.0,0.0,98,0.20,,,1.03,meteohub,2013-01-17 19:10:00,
2013-01-17 14:15:00,44.6,44.1,29.65,ESE,111,0.0,0.0,98,0.19,,,1.03,meteohub,2013-01-17 19:15:00,
2013-01-17 14:20:00,44.4,43.9,29.65,ESE,111,0.0,0.0,98,0.18,,,1.04,meteohub,2013-01-17 19:20:00,
2013-01-17 14:25:00,44.6,44.1,29.66,ESE,111,0.0,0.0,98,0.16,,,1.05,meteohub,2013-01-17 19:25:00,
2013-01-17 14:30:00,44.4,43.9,29.65,SSE,147,0.0,3.0,98,0.17,,,1.06,meteohub,2013-01-17 19:30:00,
2013-01-17 14:35:00,44.4,43.9,29.65,SSE,147,0.0,3.0,98,0.15,,,1.06,meteohub,2013-01-17 19:35:00,
2013-01-17 14:40:00,44.2,43.7,29.64,SSE,147,0.0,3.0,98,0.14,,,1.07,meteohub,2013-01-17 19:40:00,
2013-01-17 14:45:00,44.2,43.7,29.64,SSE,147,0.0,0.0,98,0.11,,,1.08,meteohub,2013-01-17 19:45:00,
2013-01-17 14:50:00,44.2,43.7,29.64,SSE,147,0.0,0.0,98,0.12,,,1.09,meteohub,2013-01-17 19:50:00,
2013-01-17 14:55:00,44.2,43.7,29.62,SSE,147,0.0,0.0,98,0.10,,,1.09,meteohub,2013-01-17 19:55:00,
2013-01-17 15:00:00,44.1,43.5,29.62,SSE,147,0.0,0.0,98,0.12,,,1.11,meteohub,2013-01-17 20:00:00,
2013-01-17 15:05:00,43.5,43.0,29.62,NE,38,0.0,0.0,98,0.11,,,1.12,meteohub,2013-01-17 20:05:00,
2013-01-17 15:10:00,43.3,42.8,29.62,North,349,0.0,1.0,98,0.12,,,1.15,meteohub,2013-01-17 20:10:00,
2013-01-17 15:15:00,43.0,42.4,29.60,NNW,343,0.0,1.0,98,0.12,,,1.16,meteohub,2013-01-17 20:15:00,
2013-01-17 15:20:00,42.6,42.1,29.59,NNW,343,0.0,1.0,98,0.13,,,1.17,meteohub,2013-01-17 20:20:00,
2013-01-17 15:25:00,42.4,41.9,29.59,South,177,0.0,1.0,98,0.11,,,1.17,meteohub,2013-01-17 20:25:00,
2013-01-17 15:30:00,42.4,41.9,29.58,WNW,302,0.0,1.0,98,0.11,,,1.17,meteohub,2013-01-17 20:30:00,
2013-01-17 15:35:00,42.4,41.9,29.58,NNW,327,0.0,1.0,98,0.10,,,1.17,meteohub,2013-01-17 20:35:00,
2013-01-17 15:40:00,42.4,41.9,29.57,WNW,298,0.0,1.0,98,0.09,,,1.17,meteohub,2013-01-17 20:40:00,
2013-01-17 15:45:00,42.4,41.9,29.57,ENE,70,0.0,1.0,98,0.09,,,1.17,meteohub,2013-01-17 20:45:00,
2013-01-17 15:50:00,42.3,41.7,29.57,NNW,339,0.0,4.0,98,0.08,,,1.17,meteohub,2013-01-17 20:50:00,
2013-01-17 15:55:00,42.1,41.5,29.57,NNW,339,0.0,4.0,98,0.08,,,1.17,meteohub,2013-01-17 20:55:00,
2013-01-17 16:00:00,41.7,41.2,29.57,NW,304,2.0,2.0,98,0.06,,,1.17,meteohub,2013-01-17 21:00:00,
2013-01-17 16:06:00,41.7,41.2,29.58,WNW,292,5.0,5.0,98,0.04,,,1.17,meteohub,2013-01-17 21:06:00,
2013-01-17 16:11:00,41.7,41.2,29.59,North,7,0.0,6.0,98,0.02,,,1.17,meteohub,2013-01-17 21:11:00,
2013-01-17 16:16:00,41.4,40.8,29.60,NW,313,1.0,9.0,98,0.02,,,1.18,meteohub,2013-01-17 21:16:00,
2013-01-17 16:21:00,41.2,40.6,29.60,WNW,292,0.0,9.0,98,0.01,,,1.18,meteohub,2013-01-17 21:21:00,
2013-01-17 16:26:00,41.0,41.0,29.63,WNW,292,0.0,9.0,100,0.02,,,1.19,meteohub,2013-01-17 21:26:00,
2013-01-17 16:31:00,40.8,40.3,29.64,WNW,292,0.0,8.0,98,0.02,,,1.19,meteohub,2013-01-17 21:31:00,
2013-01-17 16:36:00,40.8,40.3,29.64,WNW,292,0.0,7.0,98,0.02,,,1.19,meteohub,2013-01-17 21:36:00,
2013-01-17 16:41:00,40.5,39.9,29.64,WNW,293,4.0,0.0,98,0.02,,,1.19,meteohub,2013-01-17 21:41:00,
2013-01-17 16:46:00,39.9,39.2,29.64,WNW,301,0.0,9.0,97,0.03,,,1.20,meteohub,2013-01-17 21:46:00,
2013-01-17 16:51:00,39.7,39.0,29.65,NW,308,0.0,9.0,97,0.03,,,1.20,meteohub,2013-01-17 21:51:00,
2013-01-17 16:56:00,39.7,39.0,29.66,NW,318,0.0,9.0,97,0.03,,,1.20,meteohub,2013-01-17 21:56:00,
2013-01-17 17:01:00,39.6,38.8,29.67,NNE,12,0.0,6.0,97,0.03,,,1.20,meteohub,2013-01-17 22:01:00,
2013-01-17 17:06:00,39.4,38.7,29.67,NNW,340,0.0,3.0,97,0.03,,,1.20,meteohub,2013-01-17 22:06:00,
2013-01-17 17:11:00,39.2,38.5,29.67,NNW,343,0.0,3.0,97,0.04,,,1.21,meteohub,2013-01-17 22:11:00,
2013-01-17 17:16:00,38.7,37.9,29.67,NW,310,0.0,2.0,97,0.03,,,1.21,meteohub,2013-01-17 22:16:00,
2013-01-17 17:21:00,38.1,37.4,29.68,WNW,300,0.0,3.0,97,0.04,,,1.22,meteohub,2013-01-17 22:21:00,
2013-01-17 17:26:00,37.8,37.0,29.68,NNW,345,0.0,4.0,97,0.03,,,1.22,meteohub,2013-01-17 22:26:00,
2013-01-17 17:31:00,37.2,36.1,29.69,NW,312,0.0,4.0,96,0.04,,,1.23,meteohub,2013-01-17 22:31:00,
2013-01-17 17:36:00,36.9,35.8,29.70,NW,316,0.0,7.0,96,0.05,,,1.24,meteohub,2013-01-17 22:36:00,
2013-01-17 17:41:00,36.3,35.2,29.71,North,352,0.0,7.0,96,0.04,,,1.24,meteohub,2013-01-17 22:41:00,
2013-01-17 17:46:00,36.0,34.9,29.72,NW,314,0.0,11.0,96,0.05,,,1.25,meteohub,2013-01-17 22:46:00,
2013-01-17 17:51:00,35.6,34.5,29.73,SSE,162,0.0,11.0,96,0.05,,,1.25,meteohub,2013-01-17 22:51:00,
2013-01-17 17:57:00,35.1,34.0,29.73,NW,322,3.0,11.0,96,0.05,,,1.25,meteohub,2013-01-17 22:57:00,
2013-01-17 18:01:00,34.3,33.3,29.74,NW,319,0.0,11.0,96,0.05,,,1.25,meteohub,2013-01-17 23:01:00,
2013-01-17 18:07:00,34.0,32.9,29.75,NW,308,0.0,9.0,96,0.05,,,1.25,meteohub,2013-01-17 23:07:00,
2013-01-17 18:12:00,33.6,32.5,29.75,NW,310,0.0,15.0,96,0.04,,,1.25,meteohub,2013-01-17 23:12:00,
2013-01-17 18:17:00,33.4,32.4,29.75,NW,316,0.0,15.0,96,0.04,,,1.25,meteohub,2013-01-17 23:17:00,
2013-01-17 18:22:00,33.4,32.4,29.76,NW,318,3.0,15.0,96,0.03,,,1.25,meteohub,2013-01-17 23:22:00,
2013-01-17 18:27:00,33.4,32.4,29.78,North,351,0.0,7.0,96,0.02,,,1.25,meteohub,2013-01-17 23:27:00,
2013-01-17 18:32:00,33.4,32.4,29.79,NW,322,0.0,7.0,96,0.02,,,1.25,meteohub,2013-01-17 23:32:00,
2013-01-17 18:37:00,33.3,32.2,29.79,WNW,297,0.0,7.0,96,0.01,,,1.25,meteohub,2013-01-17 23:37:00,
2013-01-17 18:42:00,33.1,32.0,29.79,NW,309,0.0,5.0,96,0.01,,,1.25,meteohub,2013-01-17 23:42:00,
2013-01-17 18:47:00,32.7,31.6,29.81,SSW,204,0.0,5.0,96,0.00,,,1.25,meteohub,2013-01-17 23:47:00,
2013-01-17 18:52:00,32.7,32.0,29.81,NNW,341,0.0,5.0,97,0.00,,,1.25,meteohub,2013-01-17 23:52:00,
2013-01-17 18:57:00,32.5,31.8,29.81,NNW,329,0.0,4.0,97,0.00,,,1.25,meteohub,2013-01-17 23:57:00,
2013-01-17 19:02:00,32.5,31.8,29.83,NW,322,2.0,9.0,97,0.00,,,1.25,meteohub,2013-01-18 00:02:00,
2013-01-17 19:07:00,32.4,31.6,29.83,NW,322,0.0,9.0,97,0.00,,,0.00,meteohub,2013-01-18 00:07:00,
2013-01-17 19:12:00,32.4,31.6,29.83,NW,309,0.0,9.0,97,0.00,,,0.00,meteohub,2013-01-18 00:12:00,
2013-01-17 19:17:00,32.4,31.6,29.84,NW,313,2.0,9.0,97,0.01,,,0.01,meteohub,2013-01-18 00:17:00,
2013-01-17 19:22:00,32.4,31.6,29.84,WNW,302,0.0,9.0,97,0.01,,,0.01,meteohub,2013-01-18 00:22:00,
2013-01-17 19:27:00,32.4,31.6,29.85,NNW,331,0.0,6.0,97,0.01,,,0.01,meteohub,2013-01-18 00:27:00,
2013-01-17 19:32:00,32.4,31.6,29.86,North,8,0.0,7.0,97,0.01,,,0.01,meteohub,2013-01-18 00:32:00,
2013-01-17 19:37:00,32.4,31.6,29.86,NW,326,0.0,7.0,97,0.01,,,0.01,meteohub,2013-01-18 00:37:00,
2013-01-17 19:42:00,32.4,31.6,29.87,NW,322,0.0,7.0,97,0.01,,,0.01,meteohub,2013-01-18 00:42:00,
2013-01-17 19:47:00,32.4,31.6,29.87,NW,310,2.0,2.0,97,0.01,,,0.01,meteohub,2013-01-18 00:47:00,
2013-01-17 19:52:00,32.4,31.6,29.87,NW,320,0.0,3.0,97,0.01,,,0.01,meteohub,2013-01-18 00:52:00,
2013-01-17 19:57:00,32.4,31.3,29.88,NW,308,0.0,5.0,96,0.01,,,0.01,meteohub,2013-01-18 00:57:00,
2013-01-17 20:02:00,32.4,31.3,29.89,NNW,344,0.0,5.0,96,0.01,,,0.01,meteohub,2013-01-18 01:02:00,
2013-01-17 20:07:00,32.4,31.3,29.89,NW,309,0.0,9.0,96,0.01,,,0.01,meteohub,2013-01-18 01:07:00,
2013-01-17 20:12:00,32.4,31.1,29.88,NNW,341,0.0,10.0,95,0.01,,,0.01,meteohub,2013-01-18 01:12:00,
2013-01-17 20:17:00,32.4,30.7,29.89,NW,323,0.0,10.0,94,0.00,,,0.01,meteohub,2013-01-18 01:17:00,
2013-01-17 20:22:00,32.4,30.6,29.89,NNW,339,0.0,9.0,93,0.00,,,0.01,meteohub,2013-01-18 01:22:00,
2013-01-17 20:28:00,32.4,30.4,29.90,West,281,0.0,6.0,92,0.00,,,0.01,meteohub,2013-01-18 01:28:00,
2013-01-17 20:33:00,32.4,30.4,29.91,NW,320,0.0,6.0,92,0.00,,,0.01,meteohub,2013-01-18 01:33:00,
2013-01-17 20:38:00,32.4,30.0,29.92,NW,313,0.0,6.0,91,0.00,,,0.01,meteohub,2013-01-18 01:38:00,
2013-01-17 20:43:00,32.4,30.0,29.92,NW,313,0.0,0.0,91,0.00,,,0.01,meteohub,2013-01-18 01:43:00,
2013-01-17 20:48:00,32.4,30.0,29.92,NW,313,0.0,0.0,91,0.00,,,0.01,meteohub,2013-01-18 01:48:00,
2013-01-17 20:53:00,32.2,29.8,29.92,NW,313,0.0,0.0,91,0.00,,,0.01,meteohub,2013-01-18 01:53:00,
2013-01-17 20:58:00,32.0,29.5,29.92,NW,313,0.0,0.0,90,0.00,,,0.01,meteohub,2013-01-18 01:58:00,
2013-01-17 21:03:00,31.8,28.9,29.92,NW,313,0.0,0.0,89,0.00,,,0.01,meteohub,2013-01-18 02:03:00,
2013-01-17 21:08:00,31.6,27.9,29.93,NW,313,0.0,0.0,86,0.00,,,0.01,meteohub,2013-01-18 02:08:00,
2013-01-17 21:13:00,31.5,27.5,29.94,NW,313,0.0,0.0,85,0.00,,,0.01,meteohub,2013-01-18 02:13:00,
2013-01-17 21:18:00,31.3,26.4,29.95,NW,313,0.0,0.0,82,0.00,,,0.01,meteohub,2013-01-18 02:18:00,
2013-01-17 21:23:00,31.3,26.8,29.96,NW,313,0.0,0.0,83,0.00,,,0.01,meteohub,2013-01-18 02:23:00,
2013-01-17 21:28:00,30.9,27.0,29.97,NW,313,0.0,0.0,85,0.00,,,0.01,meteohub,2013-01-18 02:28:00,
2013-01-17 21:33:00,30.7,27.7,29.97,NW,313,0.0,0.0,88,0.00,,,0.01,meteohub,2013-01-18 02:33:00,
2013-01-17 21:38:00,30.7,27.1,29.97,NW,313,0.0,0.0,86,0.00,,,0.01,meteohub,2013-01-18 02:38:00,
2013-01-17 21:43:00,30.6,27.0,29.98,NW,313,0.0,0.0,86,0.00,,,0.01,meteohub,2013-01-18 02:43:00,
2013-01-17 21:48:00,30.6,26.6,29.97,NW,313,0.0,0.0,85,0.00,,,0.01,meteohub,2013-01-18 02:48:00,
2013-01-17 21:53:00,30.4,25.9,29.97,NW,313,0.0,0.0,83,0.00,,,0.01,meteohub,2013-01-18 02:53:00,
2013-01-17 21:58:00,30.2,25.7,29.97,NW,313,0.0,0.0,83,0.00,,,0.01,meteohub,2013-01-18 02:58:00,
2013-01-17 22:03:00,30.0,24.6,29.97,NW,313,0.0,0.0,80,0.00,,,0.01,meteohub,2013-01-18 03:03:00,
2013-01-17 22:08:00,30.0,24.3,29.98,NW,313,0.0,0.0,79,0.00,,,0.01,meteohub,2013-01-18 03:08:00,
2013-01-17 22:13:00,30.0,24.1,29.98,NW,313,0.0,0.0,78,0.00,,,0.01,meteohub,2013-01-18 03:13:00,
2013-01-17 22:18:00,30.0,24.1,29.99,NW,313,0.0,0.0,78,0.00,,,0.01,meteohub,2013-01-18 03:18:00,
2013-01-17 22:23:00,29.8,23.2,30.00,NW,313,0.0,0.0,76,0.00,,,0.01,meteohub,2013-01-18 03:23:00,
2013-01-17 22:28:00,29.8,23.2,30.02,NW,313,0.0,0.0,76,0.00,,,0.01,meteohub,2013-01-18 03:28:00,
2013-01-17 22:33:00,29.8,23.5,30.02,NW,313,0.0,0.0,77,0.00,,,0.01,meteohub,2013-01-18 03:33:00,
2013-01-17 22:38:00,29.7,23.0,30.02,NW,313,0.0,0.0,76,0.00,,,0.01,meteohub,2013-01-18 03:38:00,
2013-01-17 22:43:00,29.5,23.2,30.01,NW,313,0.0,0.0,77,0.00,,,0.01,meteohub,2013-01-18 03:43:00,
2013-01-17 22:48:00,29.3,23.5,30.02,NW,313,0.0,0.0,79,0.00,,,0.01,meteohub,2013-01-18 03:48:00,
2013-01-17 22:53:00,29.1,23.2,30.02,NW,313,0.0,0.0,78,0.00,,,0.01,meteohub,2013-01-18 03:53:00,
2013-01-17 22:58:00,29.1,22.8,30.02,NW,313,0.0,0.0,77,0.00,,,0.01,meteohub,2013-01-18 03:58:00,
2013-01-17 23:03:00,29.1,22.8,30.02,NW,313,0.0,0.0,77,0.00,,,0.01,meteohub,2013-01-18 04:03:00,
2013-01-17 23:08:00,29.1,23.2,30.02,NW,313,0.0,0.0,78,0.00,,,0.01,meteohub,2013-01-18 04:08:00,
2013-01-17 23:13:00,29.1,22.5,30.02,NW,313,0.0,0.0,76,0.00,,,0.01,meteohub,2013-01-18 04:13:00,
2013-01-17 23:18:00,29.3,22.6,30.02,NW,313,0.0,0.0,76,0.00,,,0.01,meteohub,2013-01-18 04:18:00,
2013-01-17 23:23:00,29.3,22.1,30.02,NW,313,0.0,0.0,74,0.00,,,0.01,meteohub,2013-01-18 04:23:00,
2013-01-17 23:28:00,29.3,22.1,30.03,NW,313,0.0,0.0,74,0.00,,,0.01,meteohub,2013-01-18 04:28:00,
2013-01-17 23:33:00,29.3,22.1,30.03,NW,313,0.0,0.0,74,0.00,,,0.01,meteohub,2013-01-18 04:33:00,
2013-01-17 23:38:00,29.1,21.9,30.04,NW,313,0.0,0.0,74,0.00,,,0.01,meteohub,2013-01-18 04:38:00,
2013-01-17 23:43:00,28.9,21.7,30.04,NW,313,0.0,0.0,74,0.00,,,0.01,meteohub,2013-01-18 04:43:00,
2013-01-17 23:48:00,28.9,22.1,30.05,NW,313,0.0,0.0,75,0.00,,,0.01,meteohub,2013-01-18 04:48:00,
2013-01-17 23:53:00,28.8,22.1,30.05,NW,313,0.0,0.0,76,0.00,,,0.01,meteohub,2013-01-18 04:53:00,
2013-01-17 23:58:00,28.6,21.9,30.05,NW,313,0.0,0.0,76,0.00,,,0.01,meteohub,2013-01-18 04:58:00,